This is the latest recevied weather packets stored in our database for station/object F4NFR-13. If no packets are shown the sender has not sent any weather packets the latest 10 day(s).
| Time | Temp. | Humidity | Pressure | Rain* | Wind** | Luminosity | Snow |
|---|---|---|---|---|---|---|---|
| 1777985362 | 15° C | 62% | 1012.3 hPa | 0 mm | - | 0 W/m² | - |
| 1777985059 | 15° C | 60% | 1012.3 hPa | 0 mm | - | 155 W/m² | - |
| 1777984757 | 15° C | 64% | 1012.3 hPa | 0 mm | - | 0 W/m² | - |
| 1777984455 | 15° C | 63% | 1012.3 hPa | 0 mm | - | 211 W/m² | - |
| 1777984152 | 15° C | 63% | 1012.3 hPa | 0 mm | - | 274 W/m² | - |
| 1777983850 | 16.11° C | 62% | 1012.3 hPa | 0 mm | - | 162 W/m² | - |
| 1777983245 | 15° C | 63% | 1012.3 hPa | 0 mm | - | 153 W/m² | - |
| 1777982943 | 15° C | 64% | 1012.3 hPa | 0 mm | - | 0 W/m² | - |
| 1777982641 | 15° C | 64% | 1012.3 hPa | 0 mm | - | 26 W/m² | - |
| 1777982339 | 15° C | 63% | 1012.3 hPa | 0 mm | - | - | - |
| 1777982036 | 15° C | 63% | 1012.3 hPa | 0 mm | - | 110 W/m² | - |
| 1777981431 | 15° C | 60% | 1012.3 hPa | 0 mm | - | 0 W/m² | - |
| 1777981129 | 17.22° C | 62% | 1012.3 hPa | 0 mm | - | 0 W/m² | - |
| 1777980827 | 15° C | 60% | 1012.3 hPa | 0 mm | - | 0 W/m² | - |
| 1777980524 | 15° C | 62% | 1012.3 hPa | 0 mm | - | 166 W/m² | - |
| 1777980221 | 15° C | 63% | 1012.3 hPa | 0 mm | - | 243 W/m² | - |
| 1777979919 | 15° C | 63% | 1012.3 hPa | 0 mm | - | 92 W/m² | - |
| 1777979919 | 15° C | 63% | 1012.3 hPa | 0 mm | - | 92 W/m² | - |
| 1777979617 | 15° C | 63% | 1012.3 hPa | 0 mm | - | 105 W/m² | - |
| 1777979314 | 15° C | 64% | 1012.3 hPa | 0 mm | - | 224 W/m² | - |
| 1777979012 | 13.89° C | 62% | 1012.7 hPa | 0 mm | - | 124 W/m² | - |
| 1777978710 | 13.89° C | 63% | 1012.7 hPa | 0 mm | - | 0 W/m² | - |
| 1777978407 | 15° C | 65% | 1012.7 hPa | 0 mm | - | 78 W/m² | - |
| 1777978105 | 13.89° C | 63% | 1012.7 hPa | 0 mm | - | 0 W/m² | - |
| 1777977802 | 15° C | 62% | 1012.7 hPa | 0 mm | - | 0 W/m² | - |
* Rain latest hour (hover to see other rain measurements)
** Current wind speed in m/s (hover to see current wind gust speed)